Home   Weather   Iași   Past weeks
Flag for Romania

Past Weather in Iași, Romania — Yesterday and Last 2 Weeks

Now
41 °F

Passing clouds.


Feels Like: 33 °F
Forecast: 49 / 24 °F
Wind: 15 mph from North

Location: Iasi Airport

Current Time: Mar 31, 2020 at 4:45:52 pm

Latest Report: Mar 31, 2020 at 4:00 pm


Visibility: N/A

Pressure: 30.18 "Hg

Humidity: 28%

Dew Point: 10 °F

Location of IașiLocation

Past Weather in Iași — Graph

°F

Iași Temperature Yesterday

Maximum temperature yesterday: 52 °F (at 12:00 pm)
Minimum temperature yesterday: 36 °F (at 10:30 pm)
Average temperature yesterday: 45 °F

High & Low Weather Summary for the Past Weeks

 TemperatureHumidityPressure
High66 °F (Mar 29, 4:00 pm)100% (Mar 22, 2:00 am)30.57 "Hg (Mar 22, 2:00 am)
Low27 °F (Mar 24, 5:00 am)12% (Mar 16, 5:00 pm)29.68 "Hg (Mar 29, 3:00 pm)
Average45 °F50%30.21 "Hg
* Reported Mar 16 2:00 pm — Mar 31 3:30 pm, Iași. Weather by CustomWeather, © 2020

Note: Actual official high and low records may vary slightly from our data, if they occured in-between our weather recording intervals... More about our weather records

Iași Weather History for the Previous 24 Hours

Scroll right to see more
 ConditionsComfort  
Time TempWeatherWind HumidityBarometerVisibility
3:30 pm
Tue, Mar 31
41 °FPassing clouds.12 mph28%30.15 "HgN/A
3:00 pm41 °FPassing clouds.13 mph28%30.18 "HgN/A
2:30 pm39 °FSunny.16 mph30%30.18 "Hg10 mi
2:00 pm41 °FPassing clouds.14 mph31%30.18 "HgN/A
1:30 pm41 °FSunny.15 mph28%30.18 "Hg10 mi
1:00 pm41 °FSunny.14 mph31%30.18 "Hg10 mi
12:30 pm41 °FPassing clouds.15 mph28%30.18 "HgN/A
12:00 pm39 °FSunny.17 mph30%30.18 "Hg10 mi
11:30 am37 °FSunny.18 mph35%30.21 "Hg10 mi
11:00 am37 °FPassing clouds.16 mph35%30.21 "HgN/A
10:30 am36 °FPassing clouds.14 mph41%30.21 "HgN/A
10:00 am36 °FSunny.15 mph48%30.21 "Hg10 mi
9:30 am34 °FSunny.14 mph51%30.18 "Hg10 mi
9:00 am32 °FSunny.9 mph55%30.18 "Hg10 mi
8:30 am30 °FSunny.10 mph59%30.18 "Hg10 mi
8:00 am28 °FSunny.12 mph69%30.18 "Hg10 mi
7:30 am28 °FSunny.10 mph69%30.15 "Hg10 mi
7:00 am28 °FSunny.8 mph74%30.15 "Hg10 mi
6:00 am28 °FClear.10 mph74%30.12 "Hg10 mi
5:30 am30 °FPassing clouds.12 mph69%30.12 "HgN/A
5:00 am30 °FClear.10 mph75%30.12 "Hg10 mi
4:30 am32 °FClear.10 mph69%30.12 "Hg10 mi
4:00 am32 °FClear.8 mph75%30.12 "Hg10 mi
3:30 am32 °FClear.9 mph75%30.12 "Hg10 mi
3:00 am32 °FClear.12 mph75%30.12 "Hg10 mi
2:30 am32 °FOvercast.12 mph69%30.12 "HgN/A
2:00 am34 °FClear.15 mph65%30.12 "Hg10 mi
1:30 am32 °FPassing clouds.13 mph75%30.12 "HgN/A
1:00 am34 °FPassing clouds.12 mph70%30.12 "HgN/A
12:30 am34 °FOvercast.13 mph70%30.12 "HgN/A
12:00 am34 °FPassing clouds.16 mph70%30.09 "HgN/A
11:30 pm
Mon, Mar 30
36 °FPassing clouds.16 mph65%30.09 "HgN/A
11:00 pm36 °FClear.15 mph60%30.07 "Hg10 mi
10:30 pm36 °FPassing clouds.15 mph60%30.07 "HgN/A
10:00 pm37 °FPartly cloudy.15 mph60%30.07 "HgN/A
9:30 pm37 °FPassing clouds.15 mph65%30.07 "HgN/A
9:00 pm37 °FPartly cloudy.17 mph60%30.04 "HgN/A
8:30 pm37 °FPartly cloudy.16 mph60%30.04 "HgN/A
8:00 pm39 °FPartly cloudy.16 mph56%30.01 "HgN/A
7:30 pm39 °FPartly sunny.17 mph56%29.98 "HgN/A
7:00 pm39 °FPartly sunny.18 mph61%29.98 "HgN/A
6:30 pm41 °FPartly sunny.16 mph57%29.95 "HgN/A
6:00 pm41 °FScattered clouds.18 mph61%29.95 "HgN/A
5:30 pm45 °FPassing clouds.20 mph53%29.92 "HgN/A
5:00 pm45 °FScattered clouds.21 mph57%29.92 "HgN/A
4:30 pm46 °FScattered clouds.18 mph57%29.92 "HgN/A
4:00 pm48 °FScattered clouds.18 mph54%29.92 "HgN/A
Weather by CustomWeather, © 2020

See weather overview

Advertising